Find STARLINK-37540

NORAD ID: 70579 Constellation: starlink operational
LEOCIRCULARRETROGRADE

Live-Position

3D-Globus wird geladen...

Über STARLINK-37540

Beschreibung wird geladen...

Nächste Überflüge

Passes for default location (London). Set your location on the main map for personalized predictions.

Höhenverlauf

Loading altitude history...

Zweizeiliger Elementsatz

1 70579C 26097V 26121.88034722 -.00249220 00000+0 -35827-3 0 1213
2 70579 97.2852 316.5409 0008769 254.3745 352.7021 16.05471488 16
Epoch: 1. Mai 2026 • Age: 30 hours